Regional Weather Roundup
Issued by NWS

Home | Current Version | Previous Version | Text Only | Print | Product List | Glossary Off
Versions: 1 2 3 4 5 6 7 8 9 10 11 12 13 14 15 16 17 18 19 20 21 22 23 24 25 26 27 28 29 30 31 32 33 34 35 36 37 38 39 40 41 42 43 44 45 46 47 48 49 50

000
ASUS45 KBOI 210210
RWRID

IDAHO REGIONAL WEATHER ROUNDUP
NATIONAL WEATHER SERVICE BOISE ID
800 PM MDT SUN AUG 20 2017

NOTE: "FAIR" INDICATES FEW OR NO CLOUDS BELOW 12000 FEET
WITH NO SIGNIFICANT WEATHER AND/OR OBSTRUCTIONS TO VISIBILITY

IDZ012-014-210300-
SOUTHWEST IDAHO


CITY           SKY/WX    TMP DP  RH WIND       PRES   REMARKS
BOISE          MOCLDY    81  34  18 NW10      29.96S
CALDWELL       MOCLDY    81  42  25 SW3       29.95S
MOUNTAIN HOME  MOCLDY    81  34  17 NW9       29.96R
$$

IDZ016-017-210300-
SOUTHCENTRAL IDAHO


CITY           SKY/WX    TMP DP  RH WIND       PRES   REMARKS
BURLEY         CLEAR     73  45  36 SW8       30.00S
JEROME         CLEAR     75  44  33 SW9       30.00S
TWIN FALLS     CLEAR     77  42  28 W5        30.02R
$$

IDZ019>023-210300-
SOUTHEAST IDAHO


CITY           SKY/WX    TMP DP  RH WIND       PRES   REMARKS
IDAHO FALLS    PTCLDY    79  36  21 S10       30.02R
POCATELLO      CLEAR     79  36  21 SW12      30.01S
REXBURG        CLOUDY    75  36  24 S5        30.02F
$$

IDZ006-010-011-018-031-032-210300-
CENTRAL IDAHO MOUNTAINS


CITY           SKY/WX    TMP DP  RH WIND       PRES   REMARKS
MCCALL         PTCLDY    73  30  20 NW5       30.08R
HAILEY         PTCLDY    75  28  17 SW8G21    30.05S
STANLEY          N/A     73  23  15 NW7       30.14S
SALMON         MOCLDY    75  44  33 NE3       30.00R
CHALLIS        PTCLDY    75  33  21 N10       30.01R
$$

IDZ002-004-006-007-026-210300-
NORTHERN IDAHO


CITY           SKY/WX    TMP DP  RH WIND       PRES   REMARKS
LEWISTON       CLOUDY    81  43  26 NW6       29.98S
LOWELL           N/A     75  49  39 CALM      29.97S
COEUR D`ALENE  PTCLDY    76  41  28 SW5       30.03S
MULLAN PASS    MOCLDY    59  34  39 VRB3      30.19S
$$



USA.gov is the U.S. government's official web portal to all federal, state and local government web resources and services.